Location: Unspecified
(0.0000°N, 0.0000°E)
Time: 07:51:11
(UTC+00:00)

Courier 1B - All Passes

Search period start: 03 April 2020 00:00
Search period end: 13 April 2020 00:00
Orbit: 962 x 1209 km, 28.3° (Epoch: 02 April)

Date Brightness Start Highest point End Pass type
(mag) Time Alt. Az. Time Alt. Az. Time Alt. Az.
03 Apr - 04:35:03 10° NNW 04:39:35 19° NNE 04:44:04 10° ENE visible
03 Apr - 06:27:24 10° NW 06:33:51 71° NNE 06:40:22 10° ESE daylight
03 Apr - 08:22:17 10° W 08:27:57 31° SSW 08:33:48 10° SSE daylight
03 Apr - 16:06:42 10° SSW 16:12:15 21° SSE 16:17:52 10° ESE daylight
03 Apr - 17:59:16 10° SW 18:07:03 64° SSE 18:14:47 10° ENE daylight
03 Apr - 19:54:12 10° W 20:01:32 42° NNW 20:08:40 10° NE visible
03 Apr - 21:53:00 10° NW 21:56:33 14° NNW 22:00:03 10° N visible
04 Apr - 03:42:13 10° N 03:45:35 14° NNE 03:48:54 10° NE visible
04 Apr - 05:33:50 10° NW 05:40:07 49° NNE 05:46:21 10° ESE visible
04 Apr - 07:28:02 10° W 07:34:07 44° SSW 07:40:22 10° SE daylight
04 Apr - 09:25:55 10° SW 09:28:49 13° SSW 09:31:45 10° S daylight
04 Apr - 15:13:45 10° SSW 15:18:01 16° SSE 15:22:21 10° ESE daylight
04 Apr - 17:05:36 10° SW 17:13:00 47° SSE 17:20:30 10° ENE daylight
04 Apr - 18:59:48 10° WSW 19:07:29 57° NNW 19:15:06 10° NE visible
04 Apr - 20:57:12 10° WNW 21:02:19 19° NNW 21:07:21 10° NNE visible
05 Apr - 02:50:14 10° N 02:51:28 10° NNE 02:52:41 10° NNE visible
05 Apr - 04:40:23 10° NW 04:46:20 35° NNE 04:52:09 10° E visible
05 Apr - 06:33:58 10° WNW 06:40:22 62° SSW 06:46:49 10° SE daylight
05 Apr - 08:30:35 10° WSW 08:34:45 17° SSW 08:39:00 10° SSE daylight
05 Apr - 14:21:32 10° S 14:23:43 11° SSE 14:25:56 10° SE daylight
05 Apr - 16:12:06 10° SW 16:18:56 35° SSE 16:25:56 10° E daylight
05 Apr - 18:05:38 10° WSW 18:13:28 77° NNW 18:21:19 10° NE daylight
05 Apr - 20:01:57 10° W 20:08:08 25° NNW 20:14:14 10° NNE visible
06 Apr - 03:47:03 10° NNW 03:52:28 26° NNE 03:57:44 10° E visible
06 Apr - 05:40:05 10° WNW 05:46:38 88° SW 05:53:08 10° ESE visible
06 Apr - 07:35:44 10° WSW 07:40:48 24° SSW 07:45:57 10° SSE daylight
06 Apr - 15:18:48 10° SSW 15:24:51 26° SSE 15:31:05 10° E daylight
06 Apr - 17:11:42 10° SW 17:19:27 80° SSE 17:27:20 10° ENE daylight
06 Apr - 19:07:06 10° W 19:14:00 33° NNW 19:20:53 10° NE visible
06 Apr - 21:07:11 10° NW 21:09:22 11° NNW 21:11:31 10° N visible
07 Apr - 02:53:51 10° NNW 02:58:30 19° NNE 03:03:01 10° ENE visible
07 Apr - 04:46:19 10° NW 04:52:55 66° NNE 04:59:20 10° ESE visible
07 Apr - 06:41:13 10° W 06:46:57 33° SSW 06:52:43 10° SE daylight
07 Apr - 14:25:45 10° SSW 14:30:44 19° SSE 14:35:50 10° ESE daylight
07 Apr - 16:17:58 10° SW 16:25:26 60° SSE 16:33:09 10° ENE daylight
07 Apr - 18:12:34 10° W 18:19:55 45° NNW 18:27:20 10° NE visible
07 Apr - 20:10:47 10° NW 20:15:01 15° NNW 20:19:13 10° N visible
08 Apr - 02:00:51 10° N 02:04:25 14° NNE 02:07:54 10° NE visible
08 Apr - 03:52:40 10° NW 03:59:08 47° NNE 04:05:22 10° ESE visible
08 Apr - 05:46:54 10° WNW 05:53:10 46° SSW 05:59:21 10° SE daylight
08 Apr - 07:44:46 10° SW 07:47:41 13° SSW 07:50:38 10° S daylight
08 Apr - 13:33:07 10° S 13:36:32 14° SSE 13:40:02 10° SE daylight
08 Apr - 15:24:25 10° SW 15:31:26 43° SSE 15:38:45 10° E daylight
08 Apr - 17:18:18 10° WSW 17:25:52 61° NNW 17:33:37 10° NE daylight
08 Apr - 19:15:16 10° WNW 19:20:44 20° NNW 19:26:13 10° NNE visible
09 Apr - 01:08:26 10° N 01:10:13 11° NNE 01:11:58 10° NNE night (unlit)
09 Apr - 02:59:07 10° NW 03:05:17 34° NNE 03:11:11 10° E visible
09 Apr - 04:52:47 10° WNW 04:59:25 67° SSW 05:05:52 10° SE visible
09 Apr - 06:49:23 10° WSW 06:53:42 18° SSW 06:58:01 10° SSE daylight
09 Apr - 14:31:04 10° SSW 14:37:26 32° SSE 14:44:04 10° E daylight
09 Apr - 16:24:17 10° WSW 16:31:51 81° NNW 16:39:44 10° ENE daylight
09 Apr - 18:20:14 10° W 18:26:32 27° NNW 18:32:55 10° NNE visible
10 Apr - 02:05:40 10° NNW 02:11:21 25° NNE 02:16:46 10° E visible
10 Apr - 03:58:48 10° WNW 04:05:41 87° NNE 04:12:14 10° ESE visible
10 Apr - 05:54:29 10° W 05:59:48 25° SSW 06:05:01 10° SSE daylight
10 Apr - 13:37:57 10° SSW 13:43:25 23° SSE 13:49:05 10° ESE daylight
10 Apr - 15:30:30 10° SW 15:37:53 75° SSE 15:45:39 10° ENE daylight
10 Apr - 17:25:33 10° W 17:32:25 35° NNW 17:39:25 10° NE daylight
10 Apr - 19:24:50 10° NW 19:27:46 12° NNW 19:30:43 10° N visible
11 Apr - 01:12:21 10° NNW 01:17:18 19° NNE 01:22:03 10° ENE night (unlit)
11 Apr - 03:04:57 10° NW 03:11:54 63° NNE 03:18:26 10° ESE visible
11 Apr - 04:59:54 10° W 05:05:58 36° SSW 05:11:51 10° SE visible
11 Apr - 12:45:07 10° SSW 12:49:20 17° SSE 12:53:42 10° ESE daylight
11 Apr - 14:36:54 10° SW 14:43:56 55° SSE 14:51:23 10° ENE daylight
11 Apr - 16:31:11 10° W 16:38:20 47° NNW 16:45:47 10° NE daylight
11 Apr - 18:28:55 10° WNW 18:33:25 16° NNW 18:37:58 10° NNE visible
12 Apr - 00:19:13 10° NNW 00:23:07 15° NNE 00:26:55 10° NE night (unlit)
12 Apr - 02:11:14 10° NW 02:18:02 45° NNE 02:24:28 10° E visible
12 Apr - 04:05:31 10° WNW 04:12:10 51° SSW 04:18:32 10° SE visible
12 Apr - 06:03:17 10° SW 06:06:37 14° SSW 06:09:55 10° S daylight
12 Apr - 11:52:57 10° S 11:55:13 12° SSE 11:57:30 10° SE daylight
12 Apr - 13:43:30 10° SW 13:50:01 39° SSE 13:56:54 10° E daylight
12 Apr - 15:37:05 10° WSW 15:44:20 64° NNW 15:51:59 10° NE daylight
12 Apr - 17:33:38 10° WNW 17:39:09 21° NNW 17:44:46 10° NNE daylight
12 Apr - 23:26:33 10° N 23:28:50 11° NNE 23:31:05 10° NE night (unlit)
